Regional Weather Roundup
Issued by NWS

Home | Current Version | Previous Version | Graphics & Text | Print | Product List | Glossary On
Versions: 1 2 3 4 5 6 7 8 9 10 11 12 13 14 15 16 17 18 19 20 21 22 23 24 25 26 27
000
ASUS45 KBOU 221307
RWRCO

WEATHER ROUNDUP FOR COLORADO
NATIONAL WEATHER SERVICE DENVER/BOULDER CO
700 AM MDT FRI JUL 22 2016

NOTE: "FAIR" INDICATES FEW OR NO CLOUDS BELOW 12000 FEET WITH NO
SIGNIFICANT WEATHER AND/OR OBSTRUCTIONS TO VISIBILITY.

COZ001>005-013-030-031-221400-
...NORTHWEST COLORADO...

CITY           SKY/WX    TMP DP  RH WIND       PRES   REMARKS
CRAIG          FAIR      51  46  83 W3        30.37S
HAYDEN         FAIR      55  45  67 E10       30.40R
MEEKER         FAIR      53  49  86 SE3       30.39R
MOUNT WERNER   NOT AVBL
STEAMBOAT SPGS FAIR      51  47  86 CALM      30.43R
WALDEN         FAIR      43  39  87 SE7       30.53R
$$

COZ006>008-011-221400-
...WEST CENTRAL VALLEYS...

CITY           SKY/WX    TMP DP  RH WIND       PRES   REMARKS
GRAND JUNCTION FAIR      68  52  56 E9        30.26R
MONTROSE       FAIR      62  53  72 SE8       30.37R
EAGLE          FAIR      54  50  87 E3        30.48R
RIFLE          FAIR      59  51  75 SE3       30.35R
DELTA          FAIR      65  56  70 NE5       30.33R
NUCLA          FAIR      61  54  77 SE7       30.39S
$$

COZ017>023-064>068-221400-
...SOUTHWEST COLORADO...

CITY           SKY/WX    TMP DP  RH WIND       PRES   REMARKS
DURANGO        FAIR      57  50  77 N3        30.41R
CORTEZ         FAIR      61  54  77 CALM      30.36R
PAGOSA SPRINGS FAIR      57  49  74 CALM      30.48S
TELLURIDE      FAIR      53  47  81 SE6       30.60S
WOLF CREEK PAS FAIR      50  41  71 SW10      30.81R
$$

COZ009-010-012-014-032>034-037-058>063-221400-
...CENTRAL COLORADO...

CITY           SKY/WX    TMP DP  RH WIND       PRES   REMARKS
ASPEN          FAIR      50  48  93 SE3       30.50R
BUENA VISTA    FAIR      54  49  83 NW7       30.51S
COPPER MTN     FAIR      54  39  58 W6        30.79S
BERTHOUD PASS  FAIR      45  32  61 NW16G22   30.82R
COTTONWOOD PAS FAIR      59  43  55 W5        30.62S
GUNNISON       FAIR      54  48  82 CALM      30.54R
KREMMLING      CLOUDY    52  50  93 E5        30.52R
LEADVILLE      FAIR      45  42  89 N5        30.63R
MONARCH PASS   FAIR      46  41  81 MISG      30.88R
SALIDA         FAIR      57  51  82 W3        30.55S
SUNLIGHT       FAIR      54  46  76 CALM      30.73R
WILKERSON PASS FAIR      52  41  66 W9G17     30.75R
$$

COZ069>075-221400-
...SAN LUIS VALLEY/SANGRE DE CRISTO MOUNTAINS...

CITY           SKY/WX    TMP DP  RH WIND       PRES   REMARKS
ALAMOSA        FAIR      54  47  77 CALM      30.47R
LA VETA PASS   FAIR      54  41  62 S7        30.64R
SAGUACHE       NOT AVBL
$$

COZ035-036-038>040-221400-
...NORTHERN COLORADO FRONT RANGE...

CITY           SKY/WX    TMP DP  RH WIND       PRES   REMARKS
DENVER INTL AP FAIR      73  49  42 SW12      30.22S
DMNS CITY PARK   N/A     72  50  46 S3G9      30.23S
AURORA         MOSUNNY   71  49  46 S10       30.25R
FRONT RANGE AP MOSUNNY   73  50  43 S13G22    30.24
ERIE MUNI ARPT FAIR      65  54  67 CALM      30.22R
BOULDER MUN AP FAIR      70  50  49 CALM      30.22S
CENTENNIAL     FAIR      75  45  34 SW12      30.26S
BROOMFIELD     PTSUNNY   72  46  40 CALM      30.25R
LONGMONT       FAIR      69  54  59 CALM      30.22S
$$

COZ041-046-047-076>085-087-088-221400-
...PIKES PEAK/PALMER DIVIDE AND SOUTHERN FOOTHILLS...

CITY           SKY/WX    TMP DP  RH WIND       PRES   REMARKS
COLO. SPRINGS  PTSUNNY   68  51  54 N5        30.31R
A. F. ACADEMY  PTSUNNY   62  49  63 NE8       30.33S
SCHRIEVER AFB  NOT AVBL
ELLICOTT       FAIR     N/A N/A N/A CALM      30.29R
FALCON         FAIR      65  49  55 NW6       30.37R
FORT CARSON    FAIR      68  49  50 NW7       30.27R
LIMON          FAIR      66  52  60 CALM      30.24R
MONUMENT HILL  FAIR      61  48  63 SW7       30.39R
TRINIDAD       NOT AVBL
$$

COZ042>045-048>051-090-091-221400-
...NORTHEAST COLORADO...

CITY           SKY/WX    TMP DP  RH WIND       PRES   REMARKS
GREELEY ARPT   FAIR     N/A N/A N/A NW7       30.19S
AKRON          FAIR      68  55  63 W7        30.17S
BURLINGTON     FAIR      72  61  68 SW5       30.15R
WRAY           FAIR      70  59  68 W3        30.10S
STERLING       FAIR      68  63  83 S3        30.12S
HOLYOKE        FAIR      79  64  61 CALM      30.10S
FORT MORGAN    FAIR      71  57  60 S3        30.17S
$$

COZ086-089-092>099-221400-
...SOUTHEAST COLORADO...

CITY           SKY/WX    TMP DP  RH WIND       PRES   REMARKS
PUEBLO         FAIR      76  52  43 NW8       30.20R
LA JUNTA       FAIR      74  54  49 SW10      30.16R
LAMAR          FAIR      72  56  57 SW3       30.11S
SPRINGFIELD      N/A     77  53  43 W9        30.14F
$$




USA.gov is the U.S. government's official web portal to all federal, state and local government web resources and services.